This is the latest recevied weather packets stored in our database for station/object JF7ELG-13. If no packets are shown the sender has not sent any weather packets the latest 10 day(s).
| Time | Temp. | Humidity | Pressure | Rain* | Wind** | Luminosity | Snow |
|---|---|---|---|---|---|---|---|
| 1777976320 | 15° C | 63% | 1017 hPa | 0 mm | - | - | - |
| 1777975410 | 15° C | 64% | 1017 hPa | 0 mm | - | - | - |
| 1777974510 | 15.56° C | 65% | 1016.7 hPa | 0 mm | - | - | - |
| 1777973599 | 15.56° C | 65% | 1016.5 hPa | 0 mm | - | - | - |
| 1777972718 | 15.56° C | 66% | 1016.2 hPa | 0 mm | - | - | - |
| 1777971835 | 16.11° C | 66% | 1016.1 hPa | 0 mm | - | - | - |
| 1777970939 | 16.67° C | 65% | 1016.1 hPa | 0 mm | - | - | - |
| 1777970011 | 17.22° C | 61% | 1016.1 hPa | 0 mm | - | - | - |
| 1777969096 | 17.78° C | 59% | 1016.1 hPa | 0 mm | - | - | - |
| 1777968229 | 17.78° C | 58% | 1016.1 hPa | 0 mm | - | - | - |
| 1777967306 | 17.78° C | 57% | 1016 hPa | 0 mm | - | - | - |
| 1777966425 | 17.78° C | 58% | 1015.8 hPa | 0 mm | - | - | - |
| 1777965541 | 17.78° C | 56% | 1015.7 hPa | 0 mm | - | - | - |
| 1777964607 | 17.78° C | 57% | 1015.8 hPa | 0 mm | - | - | - |
| 1777963729 | 17.78° C | 56% | 1015.7 hPa | 0 mm | - | - | - |
| 1777962803 | 17.78° C | 54% | 1015.6 hPa | 0 mm | - | - | - |
| 1777961904 | 17.78° C | 58% | 1015.5 hPa | 0 mm | - | - | - |
| 1777961036 | 17.22° C | 58% | 1015.5 hPa | 0 mm | - | - | - |
| 1777960118 | 17.78° C | 57% | 1015.4 hPa | 0 mm | - | - | - |
| 1777959232 | 18.33° C | 54% | 1015.3 hPa | 0 mm | - | - | - |
| 1777958330 | 17.78° C | 53% | 1015.5 hPa | 0 mm | - | - | - |
| 1777957402 | 17.22° C | 53% | 1015.6 hPa | 0 mm | - | - | - |
| 1777956533 | 17.22° C | 54% | 1015.8 hPa | 0 mm | - | - | - |
| 1777955606 | 17.78° C | 54% | 1015.7 hPa | 0 mm | - | - | - |
| 1777954731 | 17.22° C | 54% | 1015.8 hPa | 0 mm | - | - | - |
* Rain latest hour (hover to see other rain measurements)
** Current wind speed in m/s (hover to see current wind gust speed)